{"data":{"norad_id":67614,"epoch":"2026-09-20T13:07:41.749536Z","epoch_age_seconds":89332,"freshness":"FRESH","line1":"1 67614U 26019A   26263.54701099  .00002399  00000+0  15609-3 0  9992","line2":"2 67614  97.4355  20.6494 0012095 220.3163 139.7171 15.08853077 35199","mean_motion":15.08853077,"eccentricity":0.0012095,"inclination_deg":97.4355,"raan_deg":20.6494,"arg_perigee_deg":220.3163,"mean_anomaly_deg":139.7171,"bstar":0.00015609,"rev_number":3519,"period_min":95.436727535003,"perigee_km":531.33629010964,"apogee_km":548.07054608101,"semimajor_km":6917.8404180953,"source":"CELESTRAK","updated_at":"2026-09-21T09:00:16.738050Z"}}